Weather History for KGGE - February, 2013

Change the Weather History Date:

Saturday, February 16, 2013

  Actual Average Record
Temperature  
Mean Temperature 41 °F -  
Max Temperature 50 °F 64 °F 69 °F (2012)
Min Temperature 32 °F 40 °F 24 °F (2015)
Degree Days  
Heating Degree Days 24    
Moisture  
Dew Point 38 °F    
Average Humidity 98    
Maximum Humidity 100    
Minimum Humidity 62    
Precipitation  
Precipitation 0.00 in - - ()
Sea Level Pressure  
Sea Level Pressure 29.91 in    
Wind  
Wind Speed 5 mph (WNW)    
Max Wind Speed 24 mph    
Max Gust Speed 32 mph    
Visibility 9 miles    
Events Rain , Snow    
Averages and records for this station are not official NWS values.
T = Trace of Precipitation, MM = Missing Value Source: NWS Daily Summary

Daily Weather History Graph

Daily Weather History Graph

Search for Another Location

Airport or City:

Trip Planner

Search our weather history database for the weather conditions in past years. The results will help you decide how hot, cold, wet, or windy it might be!

Date:

Astronomy

Feb. 16, 2013 Rise Set
Actual Time 6:59 AM EST 6:03 PM EST
Civil Twilight 6:34 AM EST 6:28 PM EST
Nautical Twilight 6:05 AM EST 6:57 PM EST
Astronomical Twilight 5:36 AM EST 7:26 PM EST
Moon 10:33 AM EST (2/16) No Moon Set
Length of Visible Light 11h 54m
Length of Day
11h 03m
Waxing Crescent, 39% of the Moon is Illuminated
Feb 16
Waxing Crescent
Feb 17
First Quarter
Feb 25
Full
Mar 4
Last Quarter
Mar 11
New

Hourly Weather History & Observations

Time (EST) Temp. Windchill Dew Point Humidity Pressure Visibility Wind Dir Wind Speed Gust Speed Precip Events Conditions
12:15 AM 37.4 °F - 37.4 °F 100% 29.98 in 10.0 mi Calm Calm - N/A   Clear
12:35 AM 35.6 °F - 35.6 °F 100% 29.98 in 10.0 mi Calm Calm - N/A   Clear
12:55 AM 35.6 °F - 35.6 °F 100% 29.97 in 10.0 mi Calm Calm - N/A   Clear
1:15 AM 35.6 °F - 35.6 °F 100% 29.97 in 10.0 mi Calm Calm - N/A   Clear
1:35 AM 35.6 °F - 35.6 °F 100% 29.96 in 10.0 mi Calm Calm - N/A   Clear
1:55 AM 35.6 °F - 35.6 °F 100% 29.96 in 10.0 mi Calm Calm - N/A   Clear
2:15 AM 37.4 °F 34.9 °F 37.4 °F 100% 29.96 in 10.0 mi SW 3.5 mph - N/A   Clear
2:35 AM 37.4 °F - 37.4 °F 100% 29.96 in 10.0 mi Calm Calm - N/A   Clear
2:55 AM 37.4 °F - 37.4 °F 100% 29.95 in 10.0 mi Calm Calm - N/A   Clear
3:15 AM 37.4 °F - 37.4 °F 100% 29.94 in 10.0 mi Calm Calm - N/A   Clear
3:35 AM 41.0 °F 39.0 °F 41.0 °F 100% 29.93 in 10.0 mi WSW 3.5 mph - N/A   Clear
3:55 AM 39.2 °F 37.0 °F 39.2 °F 100% 29.92 in 10.0 mi SW 3.5 mph - N/A   Clear
4:15 AM 37.4 °F - 37.4 °F 100% 29.91 in 10.0 mi Calm Calm - N/A   Clear
4:35 AM 37.4 °F 34.9 °F 37.4 °F 100% 29.90 in 7.0 mi WSW 3.5 mph - N/A   Clear
4:55 AM 37.4 °F 33.8 °F 37.4 °F 100% 29.90 in 7.0 mi West 4.6 mph - N/A   Clear
5:15 AM 41.0 °F 37.1 °F 41.0 °F 100% 29.91 in 10.0 mi WNW 5.8 mph - N/A   Clear
5:35 AM 41.0 °F 36.4 °F 41.0 °F 100% 29.91 in 10.0 mi West 6.9 mph - N/A   Clear
5:55 AM 41.0 °F 39.0 °F 41.0 °F 100% 29.90 in 10.0 mi WNW 3.5 mph - N/A   Clear
6:15 AM 39.2 °F 37.0 °F 39.2 °F 100% 29.90 in 10.0 mi West 3.5 mph - N/A   Clear
6:35 AM 37.4 °F - 37.4 °F 100% 29.90 in 7.0 mi Calm Calm - N/A   Clear
6:55 AM 35.6 °F - 35.6 °F 100% 29.90 in 7.0 mi Calm Calm - N/A   Clear
7:15 AM 35.6 °F - 35.6 °F 100% 29.90 in 1.2 mi Calm Calm - N/A   Mist
7:35 AM 35.6 °F - 35.6 °F 100% 29.89 in 7.0 mi Calm Calm - N/A   Clear
7:55 AM 37.4 °F - 37.4 °F 100% 29.88 in 7.0 mi Calm Calm - N/A   Clear
8:15 AM 41.0 °F - 41.0 °F 100% 29.88 in 5.0 mi Calm Calm - N/A   Clear
8:35 AM 44.6 °F 41.4 °F 44.6 °F 100% 29.88 in 10.0 mi NW 5.8 mph - N/A   Clear
8:55 AM 44.6 °F 40.7 °F 44.6 °F 100% 29.88 in 10.0 mi NNW 6.9 mph - N/A   Clear
9:15 AM 46.4 °F 44.3 °F 44.6 °F 93% 29.88 in 10.0 mi NNW 4.6 mph - N/A   Clear
9:35 AM 46.4 °F 41.9 °F 44.6 °F 93% 29.88 in 10.0 mi NW 9.2 mph - N/A   Scattered Clouds
9:55 AM 46.4 °F 41.9 °F 44.6 °F 93% 29.88 in 10.0 mi North 9.2 mph - N/A   Mostly Cloudy
10:15 AM 46.4 °F 42.4 °F 44.6 °F 93% 29.88 in 10.0 mi North 8.1 mph - N/A   Scattered Clouds
10:35 AM 50.0 °F - 42.8 °F 76% 29.87 in 10.0 mi North 6.9 mph - N/A   Clear
1:15 PM 50.0 °F - 37.4 °F 62% 29.83 in 10.0 mi NW 13.8 mph 19.6 mph N/A   Overcast
1:35 PM 48.2 °F - 37.4 °F 66% 29.83 in 10.0 mi NW 16.1 mph 24.2 mph N/A   Overcast
1:55 PM 44.6 °F 38.8 °F 41.0 °F 87% 29.84 in 10.0 mi NW 11.5 mph 16.1 mph N/A Rain Rain
2:15 PM 41.0 °F 31.9 °F 37.4 °F 87% 29.86 in 10.0 mi NW 19.6 mph 28.8 mph N/A Rain Light Rain
2:35 PM 37.4 °F 27.5 °F 37.4 °F 100% 29.86 in 7.0 mi NNW 18.4 mph 26.5 mph N/A Rain Rain
2:55 PM 37.4 °F 28.9 °F 37.4 °F 100% 29.87 in 10.0 mi NNW 13.8 mph 17.3 mph N/A Rain Light Rain
3:15 PM 37.4 °F 30.3 °F 37.4 °F 100% 29.87 in 10.0 mi NW 10.4 mph 19.6 mph N/A Rain Light Rain
3:35 PM 37.4 °F 29.8 °F 37.4 °F 100% 29.87 in 10.0 mi NW 11.5 mph 18.4 mph N/A Rain Light Rain
3:55 PM 37.4 °F 29.8 °F 37.4 °F 100% 29.88 in 10.0 mi WNW 11.5 mph 18.4 mph N/A Rain Light Rain
4:15 PM 37.4 °F 30.8 °F 37.4 °F 100% 29.87 in 10.0 mi NW 9.2 mph - N/A Rain Light Rain
4:35 PM 37.4 °F - 37.4 °F 100% 29.84 in 10.0 mi Calm Calm - N/A   Overcast
4:55 PM 37.4 °F - 37.4 °F 100% 29.84 in 10.0 mi Calm Calm - N/A   Overcast
5:15 PM 37.4 °F 32.8 °F 37.4 °F 100% 29.86 in 10.0 mi NW 5.8 mph - N/A   Overcast
5:35 PM 37.4 °F 31.4 °F 37.4 °F 100% 29.87 in 10.0 mi WNW 8.1 mph - N/A   Overcast
5:55 PM 37.4 °F 31.4 °F 37.4 °F 100% 29.87 in 10.0 mi NW 8.1 mph - N/A   Overcast
6:15 PM 37.4 °F 29.8 °F 37.4 °F 100% 29.88 in 10.0 mi WNW 11.5 mph 18.4 mph N/A   Overcast
6:35 PM 37.4 °F 33.8 °F 37.4 °F 100% 29.89 in 10.0 mi WNW 4.6 mph - N/A   Overcast
6:55 PM 37.4 °F 32.8 °F 37.4 °F 100% 29.89 in 10.0 mi WNW 5.8 mph - N/A   Overcast
7:15 PM 37.4 °F 33.8 °F 37.4 °F 100% 29.89 in 10.0 mi WNW 4.6 mph - N/A   Mostly Cloudy
7:35 PM 35.6 °F 31.7 °F 35.6 °F 100% 29.90 in 10.0 mi WSW 4.6 mph - N/A   Mostly Cloudy
7:55 PM 37.4 °F 32.8 °F 37.4 °F 100% 29.90 in 10.0 mi West 5.8 mph - N/A   Overcast
8:15 PM 35.6 °F 25.5 °F 35.6 °F 100% 29.91 in 7.0 mi West 17.3 mph 25.3 mph N/A Rain Light Rain
8:35 PM 35.6 °F 25.5 °F 35.6 °F 100% 29.91 in 10.0 mi WSW 17.3 mph 23.0 mph N/A Rain Light Rain
8:55 PM 35.6 °F 28.6 °F 35.6 °F 100% 29.93 in 10.0 mi West 9.2 mph 21.9 mph N/A   Light Drizzle
9:15 PM 35.6 °F 27.1 °F 35.6 °F 100% 29.93 in 10.0 mi West 12.7 mph 18.4 mph N/A   Overcast
9:35 PM 35.6 °F 25.5 °F 35.6 °F 100% 29.94 in 10.0 mi WNW 17.3 mph 23.0 mph N/A   Overcast
9:55 PM 35.6 °F 26.2 °F 35.6 °F 100% 29.95 in 10.0 mi WNW 15.0 mph 23.0 mph N/A   Overcast
10:15 PM 35.6 °F 23.7 °F 33.8 °F 93% 29.97 in 10.0 mi NW 24.2 mph 32.2 mph N/A Rain Light Rain
10:35 PM 33.8 °F 23.5 °F 33.8 °F 100% 29.98 in 5.0 mi NW 16.1 mph 28.8 mph N/A Snow Light Snow
10:55 PM 33.8 °F 22.8 °F 33.8 °F 100% 29.99 in 10.0 mi NW 18.4 mph 24.2 mph N/A Snow Light Snow
11:15 PM 32.0 °F 21.6 °F 32.0 °F 100% 30.00 in 7.0 mi NW 15.0 mph 24.2 mph N/A Snow Light Snow
11:35 PM 32.0 °F 24.2 °F 32.0 °F 100% 30.01 in 10.0 mi NW 9.2 mph 17.3 mph N/A   Overcast
11:55 PM 32.0 °F 23.6 °F 32.0 °F 100% 30.02 in 10.0 mi WNW 10.4 mph - N/A   Scattered Clouds